Flag for U.S.A. Weather past 2 weeks in Casper, Wyoming, U.S.A.

Now
53 °F

Clear.


Feels Like: 53 °F
Forecast: 47 / 84 °F
Wind: 3 mph from Northwest

Location: Natrona County International Airport

Current Time: Sep 15, 2014 at 11:06:47 PM

Latest Report: Sep 15, 2014 at 9:53 PM


Visibility: 10 mi

Pressure: 30.03 "Hg

Humidity: 61%

Dew point: 40 °F

Location of CasperLocation

Historic Weather in Casper — Graph

°F

Casper temperature yesterday

Maximum temperature yesterday: 80 °F (at 1:53 PM)
Minimum temperature yesterday: 31 °F (at 4:53 AM)
Average temperature yesterday: 53 °F

Past Weeks' High & Low Weather Summary

 TemperatureHumidityPressure
High90 °F (Sep 3, 1:53 PM)97% (Sep 6, 3:53 AM)30.59 "Hg (Sep 6, 3:53 AM)
Low26 °F (Sep 12, 5:53 AM)9% (Sep 3, 2:53 PM)29.53 "Hg (Sep 3, 3:53 PM)
Average56 °F55%30.01 "Hg
* Reported Aug 31 9:53 PM — Sep 15 9:53 PM, Casper, Weather by CustomWeather, © 2014

Note: Actual official high and low records may vary slightly from our data, if they occured in-between our weather recording intervals... More about our weather records

Advertising

Casper weather history for previous 24 hours

 ConditionsComfort  
Time TempWeatherWind HumidityBarometerVisibility
9:53 PM
Sep 15
53 °FClear.3 mph61%30.03 "Hg10 mi
8:53 PM64 °FClear.7 mph38%30.00 "Hg10 mi
7:53 PM66 °FSunny.3 mph31%30.01 "Hg10 mi
6:53 PM73 °FSunny.9 mph25%30.01 "Hg10 mi
5:53 PM81 °FPartly sunny.3 mph15%29.99 "Hg10 mi
4:53 PM81 °FSunny.6 mph16%29.99 "Hg10 mi
3:53 PM82 °FPassing clouds.6 mph15%30.00 "Hg10 mi
2:53 PM80 °FSunny.10 mph17%30.02 "Hg10 mi
1:53 PM76 °FSunny.9 mph24%30.06 "Hg10 mi
12:53 PM70 °FSunny.6 mph31%30.10 "Hg10 mi
11:53 AM64 °FSunny.6 mph38%30.14 "Hg10 mi
9:53 AM54 °FSunny.5 mph57%30.19 "Hg10 mi
8:53 AM48 °FSunny.N/A66%30.29 "Hg10 mi
7:53 AM41 °FSunny.3 mph86%30.24 "Hg10 mi
6:53 AM34 °FClear.6 mph92%30.24 "Hg10 mi
5:53 AM33 °FClear.No wind96%30.22 "Hg10 mi
4:53 AM34 °FClear.3 mph92%30.20 "Hg10 mi
3:53 AM34 °FClear.5 mph92%30.18 "Hg10 mi
2:53 AM37 °FClear.5 mph86%30.16 "Hg10 mi
1:53 AM40 °FClear.No wind86%30.15 "Hg10 mi
12:53 AM43 °FClear.3 mph82%30.13 "Hg10 mi
11:53 PM
Sep 14
45 °FClear.9 mph76%30.14 "Hg10 mi
Weather by CustomWeather, © 2014

See weather overviewHow to use our weather pages